Regional Weather Roundup
Issued by NWS

Home | Current Version | Previous Version | Text Only | Print | Product List | Glossary Off
Versions: 1 2 3 4 5 6 7 8 9 10 11 12 13 14 15 16 17 18 19 20 21 22 23 24 25 26 27 28 29 30 31 32 33 34 35 36 37 38 39 40 41 42 43 44 45 46 47 48 49 50

000
ASUS43 KDTX 030610
RWRMI
MICHIGAN HOURLY REGIONAL WEATHER ROUNDUP
NATIONAL WEATHER SERVICE DETROIT/PONTIAC MI
200 AM EDT FRI JUL 03 2015

NOTE: "FAIR" INDICATES FEW OR NO CLOUDS BELOW 12,000 FEET WITH NO
SIGNIFICANT WEATHER AND/OR OBSTRUCTION TO VISIBILITY.

MIZ047>049-052>055-059>063-066>070-074>076-081>083-030700-
SOUTHEAST LOWER MICHIGAN

CITY           SKY/WX    TMP DP  RH WIND       PRES   REMARKS
ADRIAN         CLEAR     59  53  80 E8        30.01S
6HR MIN TEMP:  59; 6HR MAX TEMP:  71;

ALMA           CLEAR     50  49  97 CALM      30.03S
ANN ARBOR      CLEAR     48  47  96 CALM      30.01F
BAD AXE        CLEAR     43  40  91 CALM      30.03F
CARO           CLEAR     46  46  99 CALM      30.03R
DETROIT CITY   CLEAR     57  48  72 CALM      30.02S
6HR MIN TEMP:  57; 6HR MAX TEMP:  68;

DETROIT        PTCLDY    58  50  75 N5        30.02F
6HR MIN TEMP:  58; 6HR MAX TEMP:  70; 6HR PCP: TRACE;

FLINT          CLEAR     55  49  80 CALM      30.03S
6HR MIN TEMP:  55; 6HR MAX TEMP:  71;

GROSSE ILE     CLEAR     59  52  77 NE5       30.00S
HILLSDALE      PTCLDY    56  56  99 NE3       30.01S
6HR MIN TEMP:  56; 6HR MAX TEMP:  70;

HOWELL         CLEAR     53  50  90 CALM      30.02F
6HR MIN TEMP:  53; 6HR MAX TEMP:  68;


CITY           SKY/WX    TMP DP  RH WIND       PRES   REMARKS
JACKSON        CLEAR     55  51  86 NE5       30.01F
6HR MIN TEMP:  55; 6HR MAX TEMP:  69;

LAMBERTVILLE   PTCLDY    60  55  84 CALM      30.00S
6HR MIN TEMP:  60; 6HR MAX TEMP:  70;

LANSING        CLEAR     55  47  74 CALM      30.03S
6HR MIN TEMP:  55; 6HR MAX TEMP:  69;

LAPEER         FAIR      47  46  95 CALM      30.03S
MASON          CLEAR     51  48  87 CALM      30.02F
MONROE         CLEAR     57  52  83 NE3       30.00S
MT. CLEMENS    CLEAR     55  50  84 S2        30.00S
6HR MIN TEMP:  53; 6HR MAX TEMP:  67;

PONTIAC        CLEAR     55  47  74 CALM      30.02S
6HR MIN TEMP:  55; 6HR MAX TEMP:  68;

PORT HOPE        N/A     48  44  86 SW3       30.01S
6HR MIN TEMP:  48; 6HR MAX TEMP:  62;

PORT HURON     PTCLDY    46  46 100 CALM      30.03S FOG
TRI CITIES     CLEAR     55  46  71 CALM      30.03F
6HR MIN TEMP:  55; 6HR MAX TEMP:  69;

MIDLAND        FAIR      46  45  95 CALM      30.02F
TROY           CLEAR     57  48  72 CALM      30.04S
SAGINAW HB     CLEAR     48  45  87 CALM      30.02S
$$
MIZ043>046-050>051-056>058-064>065-071>073-077>080-030700-
SOUTHWEST LOWER MICHIGAN

CITY           SKY/WX    TMP DP  RH WIND       PRES   REMARKS
BATTLE CREEK   CLEAR     61  50  67 NE6       30.01S
6HR MIN TEMP:  61; 6HR MAX TEMP:  72;

BENTON HARBOR  PTCLDY    57  52  83 E5        29.99S
6HR MIN TEMP:  53; 6HR MAX TEMP:  62;

BIG RAPIDS     CLEAR     51  48  88 CALM      30.03S
6HR MIN TEMP:  51; 6HR MAX TEMP:  71;

COLDWATER      PTCLDY    56  52  85 NE3       30.00S
6HR MIN TEMP:  56; 6HR MAX TEMP:  69;

FREMONT        FAIR      54  52  94 E3        30.01F
HOLLAND        CLEAR     58  51  78 E3        30.01F
6HR MIN TEMP:  56; 6HR MAX TEMP:  70;

GRAND RAPIDS   CLEAR     56  49  77 CALM      30.01F
6HR MIN TEMP:  56; 6HR MAX TEMP:  69;

IONIA          FAIR      51  49  93 E5        30.02S
KALAMAZOO      CLEAR     59  51  75 NE3       30.01S
6HR MIN TEMP:  59; 6HR MAX TEMP:  72;

LUDINGTON      CLEAR     51  48  91 CALM      30.01S
6HR MIN TEMP:  51; 6HR MAX TEMP:  68;

MARSHALL       PTCLDY    57  50  77 CALM      30.00S
MOUNT PLEASANT CLEAR     50  49  95 CALM      30.02F
6HR MIN TEMP:  50; 6HR MAX TEMP:  69;

MUSKEGON       CLEAR     55  52  89 CALM      30.01F
6HR MIN TEMP:  55; 6HR MAX TEMP:  70;

SOUTH HAVEN    PTCLDY    56  53  87 E3        30.00S
$$
MIZ016>042-030700-
NORTHERN LOWER MICHIGAN

CITY           SKY/WX    TMP DP  RH WIND       PRES   REMARKS
ALPENA         CLEAR     50  43  77 S3        30.00F
6HR MIN TEMP:  49; 6HR MAX TEMP:  70; 6HR PCP: TRACE;

BEAVER ISLAND  CLEAR     49  44  84 CALM      29.98F
6HR MIN TEMP:  48; 6HR MAX TEMP:  64;

BELLAIRE       CLEAR     49  48  95 CALM      30.00S
6HR MIN TEMP:  48; 6HR MAX TEMP:  68;

CADILLAC       CLEAR     46  45  95 CALM      30.02F
CHARLEVOIX     CLEAR     55  49  81 CALM      30.02S
FRANKFORT      CLEAR     51  44  76 CALM      30.00S
GAYLORD        CLEAR     55  48  77 SW3       30.01F
6HR MIN TEMP:  53; 6HR MAX TEMP:  69;

GRAYLING       CLEAR     44  43  94 CALM      30.02F
6HR MIN TEMP:  44; 6HR MAX TEMP:  70;

HARBOR SPRINGS CLEAR     51  49  92 CALM      29.99F
HOUGHTON LAKE  FAIR      46  45  96 CALM      30.03F
6HR MIN TEMP:  46; 6HR MAX TEMP:  70;

MANISTEE       CLEAR    N/A N/A N/A E5        30.00F
OSCODA         CLEAR     46  40  80 CALM      30.01F
PELLSTON       CLEAR     48  47  96 CALM      29.99F
6HR MIN TEMP:  48; 6HR MAX TEMP:  70;

ROGERS CITY    CLEAR     57  46  67 SW8       30.00F
TRAVERSE CITY  CLEAR     53  47  79 CALM      29.99S
6HR MIN TEMP:  52; 6HR MAX TEMP:  68;

$$
MIZ007>008-015-030700-
EASTERN UPPER MICHIGAN

CITY           SKY/WX    TMP DP  RH WIND       PRES   REMARKS
KINROSS        PTCLDY    55  46  71 S5        29.97F
6HR MIN TEMP:  55; 6HR MAX TEMP:  68;

MACKINAC ISLAN PTCLDY    57  51  80 SW6       29.98S
6HR MIN TEMP:  56; 6HR MAX TEMP:  65;

NEWBERRY       PTCLDY    55  44  68 SW7       29.96F
6HR MIN TEMP:  55; 6HR MAX TEMP:  68;

S. S. MARIE    PTCLDY    56  47  71 CALM      29.97F
6HR MIN TEMP:  56; 6HR MAX TEMP:  69;

MUNISING         N/A     63  46  54 SW9       29.93F
6HR MIN TEMP:  62; 6HR MAX TEMP:  72;

$$
MIZ004>006-011>014-085-030700-
CENTRAL UPPER MICHIGAN

CITY           SKY/WX    TMP DP  RH WIND       PRES   REMARKS
MANISTIQUE     CLEAR     48  44  88 CALM      29.97F
ESCANABA       CLEAR     55  48  76 W6        29.97S
6HR MIN TEMP:  55; 6HR MAX TEMP:  66;

MENOMINEE      CLEAR     55  48  76 SW3       29.98S
6HR MIN TEMP:  54; 6HR MAX TEMP:  68;

SAWYER-GWINN   CLEAR     59  47  66 SW7       29.96F
$$
MIZ001>003-009>011-084-030700-
WESTERN UPPER MICHIGAN

CITY           SKY/WX    TMP DP  RH WIND       PRES   REMARKS
IRON MOUNTAIN  CLEAR     58  48  69 SW3       29.97F
6HR MIN TEMP:  57; 6HR MAX TEMP:  72;

HOUGHTON       PTCLDY    67  53  61 W13       29.89F
6HR MIN TEMP:  60; 6HR MAX TEMP:  70;

COPPER HARBOR    N/A     67  53  61 W8        29.86F
6HR MIN TEMP:  63; 6HR MAX TEMP:  67;

IRONWOOD       CLEAR     63  54  72 SW8       29.93S
6HR MIN TEMP:  61; 6HR MAX TEMP:  73;

$$

ABBREVIATIONS USED IN REMARKS
   TC - TEMPERATURE IN CELSIUS
  WCI - WIND CHILL INDEX
   HX - HEAT INDEX
  VSB - VISIBILITY



USA.gov is the U.S. government's official web portal to all federal, state and local government web resources and services.